Погода в Гусаровке

Украина / Харьковская область     48°52′52″N   37°09′42″E
темп.,
°C
ветер,
м/с
пор.,
м/с
влажн.,
%
обл.,
%
осадки,
мм/ч
давл.,
гПа
погр.,
м
24 сентября, пт
пт2400:00+6зсз229122 0.0 101316
03:00+5зюз22915 0.0 101313
06:00+5зюз22945 0.0 101237
09:00+9юз45735 0.0 1012433
12:00+14юз684888 0.0 10101793
15:00+13юз5848100 0.0 10091531
18:00+10зюз5868100 0.0 1008763
21:00+9ю61285100 1.4 1007698
25 сентября, сб
сб2500:00+9ю4993100 2.1 1006594
03:00+9юз3594100 2.1 1006224
06:00+9зюз2594100 0.0 1006226
09:00+11зсз457971 0.0 1008445
12:00+14зюз555976 0.3 10091325
15:00+15зсз555188 0.3 10101603
18:00+13з4757100 0.0 1012307
21:00+12з487079 0.1 1014402
26 сентября, вс
вс2600:00+10зюз3672100 0.0 1015138
03:00+11зюз4981100 0.1 1015402
06:00+11юз51180100 0.1 1014490
09:00+12зюз71179100 0.4 1013495
12:00+18зсз9115992 0.6 10121428
15:00+18сз9124687 0.8 10122194
18:00+13сз611564 0.0 1013593
21:00+13сз71146100 0.0 10141346
27 сентября, пн
пн2700:00+10сз512695 0.0 1015542
03:00+8сз611845 0.0 1016456
06:00+7сз5118916 0.0 1017400
09:00+10ссз6977100 0.0 1018658
12:00+13с5662100 0.0 10191177
15:00+14с455456 0.2 10191384
18:00+13с5861100 0.1 1020466
21:00+12с377296 0.2 1021294
28 сентября, вт
вт2800:00+10ссв3782100 0.1 1022262
03:00+10ссв2577100 0.1 1023191
06:00+8ссв3580100 0.0 1024106
09:00+11ссв356596 0.0 1025340
12:00+15св454299 0.0 10251745
15:00+15св6545100 0.0 10251492
18:00+13св475494 0.0 1026408
21:00+10св377189 0.1 1027235